CW9871 Weather Reports


time (UTC)temp
C
wind
direction
speed
KPH
gust
KPH
rain 1hr
cm
rain 24hr
cm
rain mn
cm
humidity
%
barometer
mb
20260503050056 4 76 3.2 9.7 0.00 0.00 0.00 78 1013.5
20260503044552 4 89 3.2 8.0 0.00 0.00 0.00 78 1013.5
20260503043054 4 75 3.2 8.0 0.00 0.00 0.00 78 1013.7
20260503041553 4 75 1.6 6.4 0.00 0.00 0.00 78 1013.8
20260503040059 4 89 3.2 6.4 0.00 0.00 0.00 78 1013.9
20260503034557 4 88 3.2 6.4 0.00 0.00 0.00 78 1013.8
20260503033055 4 86 1.6 6.4 0.00 0.00 0.00 78 1014.0
20260503031555 4 69 1.6 6.4 0.00 0.00 0.00 78 1014.0
20260503030101 4 61 1.6 4.8 0.00 0.00 0.00 78 1014.0
20260503024555 4 77 1.6 6.4 0.00 0.03 0.00 78 1014.1
20260503023101 4 79 1.6 6.4 0.00 0.03 0.00 78 1014.1
20260503021600 4 53 1.6 4.8 0.00 0.03 0.00 78 1014.3
20260503020101 4 73 1.6 4.8 0.00 0.03 0.00 77 1014.3
20260503014612 4 0 3.2 8.0 0.00 0.03 0.00 77 1014.2
20260503013058 4 0 1.6 6.4 0.00 0.03 0.00 77 1014.2
20260503011602 4 60 1.6 6.4 0.00 0.03 0.00 76 1014.3
20260503010103 5 78 3.2 4.8 0.00 0.03 0.00 75 1014.2
20260503004607 5 78 0.0 9.7 0.00 0.03 0.00 74 1014.1
20260503003110 5 89 3.2 8.0 0.00 0.03 0.00 74 1014.0
20260503001628 5 92 3.2 11.3 0.00 0.03 0.00 74 1013.8
20260503000121 5 70 4.8 12.9 0.00 0.03 0.00 73 1013.8
20260502234607 5 66 6.4 12.9 0.00 0.03 0.00 73 1013.7
20260502233057 5 97 6.4 11.3 0.00 0.03 0.00 74 1013.6
20260502231556 6 96 3.2 9.7 0.00 0.03 0.00 73 1013.6
20260502230056 6 53 3.2 9.7 0.00 0.03 0.00 70 1013.6
20260502224555 6 101 0.0 6.4 0.00 0.05 0.00 66 1013.4
20260502223055 6 95 1.6 9.7 0.00 0.05 0.00 65 1013.5
20260502221556 6 103 3.2 11.3 0.00 0.05 0.00 65 1013.5
20260502220055 6 71 1.6 9.7 0.00 0.05 0.00 68 1013.6
20260502214556 6 98 4.8 9.7 0.00 0.10 0.00 66 1013.6
20260502213106 6 94 1.6 6.4 0.00 0.10 0.00 67 1013.3
20260502211556 6 108 3.2 12.9 0.00 0.10 0.00 67 1013.3
20260502210055 5 104 3.2 6.4 0.00 0.10 0.00 71 1013.3
20260502204602 5 0 0.0 6.4 0.00 0.10 0.00 73 1013.5
20260502203103 5 104 0.0 6.4 0.00 0.10 0.00 73 1013.5
20260502201557 5 130 3.2 9.7 0.00 0.10 0.00 73 1013.5
20260502200124 5 132 4.8 9.7 0.00 0.10 0.00 71 1013.6
20260502194608 6 127 4.8 11.3 0.00 0.10 0.00 70 1013.6
20260502193057 6 139 4.8 12.9 0.00 0.10 0.00 71 1013.7
20260502191607 6 132 3.2 8.0 0.00 0.10 0.00 74 1013.7
20260502190057 6 126 3.2 9.7 0.00 0.10 0.00 73 1013.8
20260502184559 6 125 4.8 11.3 0.00 0.10 0.00 73 1013.7
20260502183059 6 120 3.2 9.7 0.00 0.10 0.00 70 1013.5
20260502181555 7 141 4.8 11.3 0.00 0.10 0.00 69 1013.6
20260502163055 7 111 6.4 14.5 0.00 0.10 0.00 66 1013.5
20260502161554 6 154 4.8 19.3 0.00 0.10 0.00 69 1013.5
20260502160105 6 148 4.8 12.9 0.00 0.10 0.00 68 1013.6
20260502151609 7 91 14.5 27.4 0.00 0.10 0.00 55 1013.6
20260502150127 7 92 9.7 22.5 0.00 0.10 0.00 57 1013.6
20260502130107 5 88 9.7 19.3 0.00 0.10 0.00 76 1014.4
20260502123055 4 75 6.4 14.5 0.00 0.10 0.00 82 1014.6
20260502121602 3 84 9.7 25.7 0.00 0.10 0.00 82 1014.5
20260502120113 3 95 9.7 19.3 0.00 0.10 0.00 84 1014.5
20260502114558 3 32 6.4 17.7 0.00 0.10 0.00 85 1014.5
20260502113113 2 70 9.7 16.1 0.00 0.10 0.00 86 1014.4
20260502111605 2 68 4.8 11.3 0.00 0.10 0.00 87 1014.3
20260502110104 2 91 4.8 11.3 0.00 0.10 0.00 88 1014.3
20260502104555 1 73 4.8 11.3 0.00 0.10 0.00 89 1014.1
20260502103112 1 77 3.2 9.7 0.00 0.10 0.00 89 1013.9
20260502101607 2 85 4.8 12.9 0.00 0.10 0.00 88 1013.9
20260502090110 2 60 3.2 9.7 0.00 0.10 0.00 85 1013.2
20260502080104 3 94 1.6 6.4 0.00 0.10 0.00 92 1012.5
20260502070101 4 66 3.2 6.4 0.00 0.10 0.00 94 1012.2
20260502064554 4 54 3.2 8.0 0.00 0.10 0.00 94 1012.3
20260502063115 4 78 1.6 6.4 0.00 0.10 0.00 94 1012.3
20260502061558 4 70 3.2 6.4 0.00 0.10 0.00 94 1012.4
20260502060107 4 78 1.6 6.4 0.00 0.10 0.00 94 1012.5
20260502054613 4 82 3.2 8.0 0.00 0.10 0.00 94 1012.6
20260502053101 4 81 1.6 3.2 0.00 0.10 0.00 94 1012.5
20260502051556 3 81 0.0 4.8 0.00 0.10 0.00 94 1012.6